DLH1A EHAM-EDDF

Flight info

Callsign DLH1A
Flight time N/A
Altitude 33000
Route EDUPO Z739 MISGO DCT DIXAT DIXAT1D
Aircraft A321/M-SDE2E3FGIJ1LORWXYZ/HB1

Departure

Time 2026-04-28 23:38
Airport Amsterdam Airport Schiphol (EHAM)

Arrival

Time N/A
Airport Frankfurt Main Airport (EDDF)
Time Latitude Longitude Altitude Speed Heading
2026-04-28 23:23 52.31236 4.77641 -1 ft 14 kts
2026-04-28 23:23 52.31337 4.77651 -1 ft 15 kts
2026-04-28 23:23 52.31424 4.77652 -1 ft 12 kts 349°
2026-04-28 23:23 52.31501 4.77574 -1 ft 14 kts 318°
2026-04-28 23:24 52.31567 4.77444 -1 ft 16 kts 297°
2026-04-28 23:24 52.31575 4.77283 -1 ft 15 kts 266°
2026-04-28 23:24 52.31569 4.77104 -1 ft 17 kts 267°
2026-04-28 23:24 52.31566 4.77008 -1 ft 7 kts 266°
2026-04-28 23:25 52.31562 4.76912 -1 ft 10 kts 266°
2026-04-28 23:25 52.31558 4.76794 -1 ft 11 kts 266°
2026-04-28 23:25 52.31552 4.76654 -1 ft 13 kts 266°
2026-04-28 23:25 52.31546 4.76497 -1 ft 15 kts 266°
2026-04-28 23:26 52.31540 4.76323 -1 ft 16 kts 266°
2026-04-28 23:26 52.31533 4.76135 -1 ft 18 kts 266°
2026-04-28 23:26 52.31525 4.75923 -1 ft 19 kts 266°
2026-04-28 23:26 52.31519 4.75700 -1 ft 21 kts 270°
2026-04-28 23:27 52.31514 4.75530 -1 ft 13 kts 267°
2026-04-28 23:27 52.31509 4.75372 -1 ft 15 kts 267°
2026-04-28 23:27 52.31508 4.75313 -17 ft 0 kts 243°
2026-04-28 23:36 52.31449 4.75124 38 ft 210 kts 243°
2026-04-28 23:36 52.30820 4.73352 -1 ft 137 kts 236°
2026-04-28 23:36 52.30512 4.72620 0 ft 29 kts 235°
2026-04-28 23:37 52.30493 4.72576 -1 ft 0 kts 235°
2026-04-28 23:37 52.30491 4.72571 -1 ft 5 kts 235°
2026-04-28 23:37 52.30543 4.72386 -1 ft 52 kts 332°
2026-04-28 23:38 52.31287 4.71902 17 ft 170 kts 345°
2026-04-28 23:38 52.32534 4.71289 859 ft 200 kts 352°
2026-04-28 23:38 52.33333 4.71020 1475 ft 211 kts 358°